Weather History for KRDM - October, 2011

Change the Weather History Date:

Sunday, October 2, 2011

  Actual Average Record
Temperature  
Mean Temperature 54 °F 52 °F  
Max Temperature 71 °F 70 °F 90 °F (1963)
Min Temperature 37 °F 34 °F 21 °F (1973)
Degree Days  
Heating Degree Days 11 13  
Month to date heating degree days 21 26  
Since 1 July heating degree days 291 425  
Cooling Degree Days 0 0  
Month to date cooling degree days 0 0  
Year to date cooling degree days 155 222  
Growing Degree Days 4 (Base 50)    
Moisture  
Dew Point 37 °F    
Average Humidity 58    
Maximum Humidity 92    
Minimum Humidity 23    
Precipitation  
Precipitation 0.00 in 0.01 in 0.54 in (1967)
Month to date precipitation 0.00 0.03  
Year to date precipitation 5.37 6.17  
Sea Level Pressure  
Sea Level Pressure 29.91 in    
Wind  
Wind Speed 8 mph (SSW)    
Max Wind Speed 17 mph    
Max Gust Speed 24 mph    
Visibility 10 miles    
Events      
T = Trace of Precipitation, MM = Missing Value Source: NWS Daily Summary

Daily Weather History Graph

Daily Weather History Graph

Search for Another Location

Airport or City:

Trip Planner

Search our weather history database for the weather conditions in past years. The results will help you decide how hot, cold, wet, or windy it might be!

Date:

Astronomy

Oct. 02, 2011 Rise Set
Actual Time 7:03 AM PDT 6:43 PM PDT
Civil Twilight 6:34 AM PDT 7:12 PM PDT
Nautical Twilight 6:00 AM PDT 7:46 PM PDT
Astronomical Twilight 5:26 AM PDT 8:20 PM PDT
Moon 1:27 PM PDT (10/2) 10:35 PM PDT (10/2)
Length of Visible Light 12h 38m
Length of Day
11h 40m
Waxing Crescent, 36% of the Moon is Illuminated
Oct 2
Waxing Crescent
Oct 3
First Quarter
Oct 11
Full
Oct 19
Last Quarter
Oct 26
New

Hourly Weather History & Observations

Time (PDT) Temp. Windchill Dew Point Humidity Pressure Visibility Wind Dir Wind Speed Gust Speed Precip Events Conditions
12:56 AM 44.6 °F 40.7 °F 39.2 °F 81% 29.97 in 10.0 mi SSE 6.9 mph - N/A   Mostly Cloudy
1:56 AM 44.1 °F 40.1 °F 39.0 °F 82% 29.94 in 10.0 mi SSE 6.9 mph - N/A   Scattered Clouds
2:56 AM 45.0 °F 40.6 °F 39.0 °F 80% 29.96 in 10.0 mi South 8.1 mph - N/A   Mostly Cloudy
3:56 AM 44.1 °F 40.1 °F 39.0 °F 82% 29.95 in 10.0 mi SSE 6.9 mph - N/A   Clear
4:56 AM 43.0 °F - 37.9 °F 82% 29.95 in 10.0 mi Calm Calm - N/A   Clear
5:56 AM 37.9 °F 35.5 °F 36.0 °F 93% 29.97 in 10.0 mi SE 3.5 mph - N/A   Mostly Cloudy
6:56 AM 44.1 °F 40.1 °F 37.9 °F 79% 29.97 in 10.0 mi SSE 6.9 mph - N/A   Mostly Cloudy
7:56 AM 48.2 °F - 37.4 °F 66% 29.99 in 10.0 mi SSE 6.9 mph - N/A   Scattered Clouds
8:56 AM 53.1 °F - 37.9 °F 57% 29.97 in 10.0 mi South 8.1 mph - N/A   Clear
9:56 AM 57.9 °F - 37.9 °F 47% 29.98 in 10.0 mi Variable 4.6 mph - N/A   Clear
10:56 AM 63.0 °F - 37.9 °F 40% 29.96 in 10.0 mi SSW 5.8 mph - N/A   Clear
11:56 AM 66.0 °F - 37.0 °F 34% 29.93 in 10.0 mi South 9.2 mph 19.6 mph N/A   Clear
12:56 PM 66.9 °F - 35.1 °F 31% 29.91 in 10.0 mi South 13.8 mph 19.6 mph N/A   Scattered Clouds
1:56 PM 70.0 °F - 32.0 °F 25% 29.88 in 10.0 mi SSW 13.8 mph 20.7 mph N/A   Clear
2:56 PM 69.1 °F - 30.0 °F 23% 29.87 in 10.0 mi SSW 11.5 mph - N/A   Clear
3:56 PM 66.2 °F - 28.4 °F 24% 29.88 in 10.0 mi SW 12.7 mph 19.6 mph N/A   Scattered Clouds
4:56 PM 66.9 °F - 30.9 °F 26% 29.85 in 10.0 mi South 16.1 mph 21.9 mph N/A   Mostly Cloudy
5:56 PM 66.0 °F - 30.0 °F 26% 29.85 in 10.0 mi SSW 8.1 mph - N/A   Clear
6:56 PM 62.6 °F - 30.2 °F 30% 29.86 in 10.0 mi NNW 4.6 mph - N/A   Mostly Cloudy
7:56 PM 59.0 °F - 41.0 °F 51% 29.84 in 10.0 mi NNW 4.6 mph - N/A   Overcast
8:56 PM 57.2 °F - 39.2 °F 51% 29.86 in 10.0 mi NW 6.9 mph - N/A   Overcast
9:56 PM 55.9 °F - 44.1 °F 64% 29.82 in 10.0 mi NNW 4.6 mph - N/A   Overcast
10:56 PM 54.0 °F - 45.0 °F 72% 29.82 in 10.0 mi NW 8.1 mph - N/A   Overcast
11:56 PM 53.1 °F - 45.0 °F 74% 29.82 in 10.0 mi WNW 5.8 mph - N/A   Mostly Cloudy